Temperature
20 20 20 20 20 20 20 20 19 19 19 19 19 19 19 19 19 19 19 19 19 19 19 19 19 19 19 19 19 19 19 19 19 19 19 19 19 19 19 19 19 19 19
21 20 20 20 20 20 20 20 19 19 19 19 19 19 19 19 19 19 19 19 19 19 19 19 19 19 19 19 19 19 19 19 19 19 19 19 19 19 19 19 19 19 19
21 20 20 20 20 20 20 19 19 19 19 19 19 19 19 19 19 19 19 19 19 19 19 19 19 19 19 19 19 19 19 18 18 18 19 19 19 19 19 19 19 19 19
21 21 20 20 20 20 20 19 19 19 19 19 19 18 19 19 19 19 19 19 19 19 19 19 18 19 19 18 18 18 18 18 18 18 18 18 19 19 19 19 19 19 19
20 20 20 20 20 20 19 19 19 19 19 19 19 18 18 19 19 19 19 19 19 19 18 18 18 18 18 18 18 18 18 18 18 18 18 18 18 18 18 19 19 19 19
20 20 20 19 19 19 19 19 19 19 19 19 18 18 18 18 18 18 18 18 18 18 18 18 18 18 18 18 18 18 18 18 18 18 18 18 18 18 18 19 19 19 18
20 19 19 19 19 19 19 19 19 19 19 19 18 18 18 18 18 18 18 18 18 18 18 18 18 18 18 18 18 18 18 18 18 18 18 18 18 18 18 18 18 18 18
20 20 19 19 19 19 19 19 19 19 19 19 18 18 18 18 18 18 18 18 18 18 18 18 18 18 18 18 18 18 18 18 18 18 18 18 18 18 18 18 18 18 18
20 20 19 19 19 19 19 19 19 18 19 19 19 18 18 18 18 18 18 18 18 18 17 17 17 18 18 18 18 18 18 18 18 18 18 18 18 18 18 18 18 18 18
20 19 19 19 19 19 19 19 19 18 18 19 19 18 18 18 18 18 18 18 18 18 18 17 17 17 18 17 17 17 18 18 18 18 18 18 18 18 18 18 18 18 18
19 19 19 19 19 19 19 19 18 18 18 19 18 18 18 18 18 18 18 18 18 18 18 18 17 18 17 17 17 17 17 17 17 17 17 18 18 18 18 18 18 18 18
20 20 20 20 19 19 19 19 18 18 18 18 18 18 18 18 18 18 18 18 18 17 17 17 17 17 17 17 17 17 17 17 17 17 17 17 18 18 18 18 18 18 19
21 20 20 20 20 19 19 19 19 18 18 18 18 18 18 18 18 18 18 18 18 17 17 17 17 17 17 17 17 17 17 17 17 17 17 17 17 17 18 18 18 18 18
21 21 21 20 20 20 19 19 19 19 18 18 18 18 18 18 18 18 18 18 18 17 17 17 17 17 17 17 17 17 17 17 17 16 16 17 17 17 17 17 18 18 18
21 21 21 21 20 20 19 19 19 18 18 18 18 18 18 17 18 18 18 18 17 17 17 17 17 17 17 16 17 16 16 16 16 17 16 16 17 17 17 17 17 17 18
22 22 21 21 20 20 20 19 19 19 18 18 18 18 18 17 17 18 18 18 17 17 17 17 17 17 16 16 16 16 16 16 16 16 16 16 16 17 17 17 17 17 17
23 23 22 22 21 20 20 19 19 19 18 18 18 18 18 17 17 17 18 18 17 17 16 16 16 16 16 16 16 16 16 16 16 16 16 16 16 16 16 16 17 17 17
23 23 23 22 21 20 20 20 19 19 18 18 18 18 17 17 17 17 17 17 17 17 17 16 16 16 16 16 16 16 16 16 16 16 16 16 16 16 16 16 17 17 17
23 23 22 22 22 21 20 20 19 19 18 18 18 18 17 17 17 17 17 17 17 17 17 17 16 16 16 16 16 16 16 15 16 16 16 16 16 16 16 16 17 17 17
23 23 22 22 22 21 20 20 19 19 18 18 18 18 17 17 17 17 17 17 17 17 17 17 17 16 16 16 15 15 16 16 15 16 16 16 16 16 17 17 17 16 16
23 23 23 22 22 21 20 20 20 19 19 18 18 17 17 17 17 17 17 17 17 17 17 17 17 16 16 16 15 15 15 15 15 15 15 15 16 16 17 17 17 16 16
23 24 23 23 22 22 21 20 20 20 19 18 18 17 17 17 17 17 17 17 17 17 17 17 16 16 16 16 15 15 15 15 15 15 15 15 15 15 16 16 16 16 16
23 23 23 23 22 21 21 20 20 19 19 18 18 17 17 17 17 17 17 17 17 17 17 16 16 16 16 16 15 15 15 15 15 15 15 15 15 15 15 16 16 16 16
22 21 21 21 21 20 20 20 20 20 19 18 17 17 17 17 17 17 17 17 17 16 16 16 16 15 15 15 15 15 15 15 15 15 15 15 15 15 15 15 15 15 15
20 19 19 19 20 19 19 19 19 19 19 18 17 17 17 17 17 17 17 17 16 16 16 16 15 15 15 15 15 15 14 14 14 14 15 15 15 15 15 15 15 15 15
18 18 18 19 19 18 18 18 18 18 18 18 17 17 17 17 17 17 17 16 16 16 16 15 15 15 15 15 15 15 15 15 14 14 15 15 15 15 15 15 15 15 15
Wind_Speed
5 8 13 13 13 13 13 13 13 13 14 14 14 15 14 13 12 12 11 10 10 10 9 9 8 8 7 7 8 10 11 10 9 8 9 7 5 7 9 9 8 6 6
9 10 15 14 13 12 12 13 12 12 13 13 14 14 14 13 13 12 11 10 9 9 9 9 9 8 8 8 9 10 11 10 9 10 10 9 10 10 10 9 9 8 8
12 11 15 15 13 12 12 12 13 12 13 13 14 14 14 13 12 11 11 11 10 9 8 8 9 8 8 8 8 9 9 9 9 11 10 9 9 9 10 10 10 11 10
13 12 13 16 15 13 13 13 13 13 13 13 14 14 13 12 11 10 10 10 10 9 8 8 9 9 9 8 7 7 7 7 9 10 8 9 7 7 9 10 10 10 9
9 11 13 16 15 14 13 13 13 13 13 13 14 13 12 12 11 10 9 9 10 9 9 9 9 9 9 9 8 7 5 8 11 9 7 7 6 6 8 9 8 8 8
9 10 12 16 14 14 13 13 13 13 13 14 14 13 13 12 11 9 8 10 10 9 9 9 10 9 10 10 10 8 8 10 9 7 6 5 4 5 8 7 7 6 7
8 9 11 15 14 13 13 13 13 14 14 14 14 13 13 12 11 9 9 9 9 9 9 9 10 9 9 10 10 9 9 9 7 5 4 4 4 4 7 5 6 7 7
10 9 11 14 14 14 14 14 14 14 14 14 13 13 12 12 11 10 9 8 7 7 7 7 8 8 8 8 9 9 9 8 7 6 6 6 4 4 5 5 6 6 6
7 7 9 13 14 15 14 14 14 14 14 13 13 13 12 11 11 10 8 7 6 5 4 5 6 7 7 7 7 6 7 10 9 7 7 7 5 4 5 6 6 6 6
7 7 5 9 11 11 13 15 15 15 15 14 13 12 12 11 10 10 8 6 5 5 3 3 5 6 7 7 7 7 8 8 7 7 6 6 5 4 4 5 5 5 6
7 6 6 6 7 9 10 13 14 14 15 14 13 12 11 9 9 9 8 6 6 5 3 3 3 5 8 8 9 10 9 7 6 6 5 5 4 3 3 3 2 2 4
9 8 7 7 6 8 9 9 10 11 12 11 11 10 9 8 8 8 9 8 7 5 2 1 2 5 7 8 8 9 8 7 7 7 7 5 3 1 1 1 0 1 2
9 10 9 8 6 6 4 6 7 8 9 10 10 11 10 8 7 7 5 5 5 6 4 4 5 4 4 6 7 7 7 7 6 7 8 6 3 1 1 2 3 3 3
9 10 10 9 7 6 6 5 6 6 7 7 10 11 9 5 5 5 5 5 4 5 4 3 2 1 3 6 7 6 6 5 5 6 8 8 4 1 1 4 5 3 3
11 11 10 9 8 7 5 4 4 5 7 9 10 11 11 5 4 4 5 5 5 5 4 3 3 6 6 6 7 7 5 4 5 7 9 11 10 5 2 2 4 4 4
12 12 11 11 9 8 7 6 5 5 7 9 9 11 12 8 6 4 3 4 5 6 5 4 4 4 4 5 5 6 5 3 5 7 9 11 12 10 5 3 4 4 4
10 11 13 12 11 10 8 8 5 6 8 7 8 11 11 10 9 6 4 4 5 7 6 4 4 3 3 3 4 3 3 2 3 5 8 10 11 12 13 7 7 7 7
9 10 12 12 12 11 8 7 4 6 7 7 9 10 11 12 10 7 4 5 7 8 6 4 4 3 2 3 2 2 2 1 1 3 5 7 9 10 13 14 11 8 7
13 11 12 11 13 12 10 7 5 5 5 7 9 9 11 12 12 8 5 5 7 5 4 5 3 3 3 3 2 1 1 0 0 1 3 5 6 8 9 11 13 13 10
14 13 12 10 11 11 8 5 5 4 4 4 5 7 10 11 11 9 5 6 7 5 5 5 4 2 3 4 2 2 3 2 1 1 2 2 3 5 6 8 8 9 12
16 15 15 13 10 10 6 5 5 4 4 3 4 5 8 9 10 7 3 4 5 6 7 7 4 3 2 3 3 2 3 3 1 1 1 1 1 1 2 4 4 5 7
16 16 16 15 12 11 8 5 3 4 3 3 2 3 6 8 8 6 5 5 6 5 6 7 5 4 2 3 4 3 1 3 3 2 1 1 1 1 2 1 1 2 3
12 13 12 12 9 5 4 4 4 4 3 3 2 2 3 6 8 7 7 5 6 6 6 7 6 7 5 3 2 4 4 4 2 3 2 1 2 2 2 2 3 1 1
6 9 11 12 12 8 4 4 4 4 4 4 3 3 3 6 7 8 8 6 7 6 6 7 7 5 5 4 2 1 2 4 2 2 3 2 2 4 4 3 4 5 4
4 9 11 13 14 10 4 3 3 2 2 2 3 4 4 4 5 7 7 6 7 6 7 6 6 6 5 5 5 4 3 2 2 3 3 3 3 3 4 4 5 7 8
6 7 9 12 14 9 4 2 4 4 4 4 4 5 4 3 4 5 6 5 6 5 6 6 7 7 7 6 5 5 5 5 5 4 3 3 3 3 3 4 5 7 10
Wind_Direction
185 194 164 153 149 149 147 140 132 127 122 117 115 113 111 111 109 105 99 95 89 91 99 102 105 103 105 107 118 127 130 128 123 127 125 112 109 127 123 101 95 100 115
159 179 164 156 151 150 150 150 144 140 131 125 124 122 118 115 112 110 110 108 103 97 103 106 105 102 100 103 119 129 131 132 119 113 109 95 94 106 106 99 92 92 101
155 171 166 161 158 160 156 153 152 148 140 136 132 128 124 121 119 118 115 111 107 101 100 105 105 97 91 94 108 123 128 127 111 92 79 66 75 94 100 96 94 91 94
157 166 167 165 164 163 158 158 155 149 146 141 139 134 131 130 130 123 117 113 109 103 97 96 100 96 87 81 88 107 116 114 109 93 71 56 56 84 97 95 96 96 95
154 160 169 169 168 164 162 160 157 152 149 145 142 139 137 136 134 129 129 123 114 107 98 90 89 89 84 72 70 87 112 110 108 102 79 57 47 88 101 101 102 106 104
152 159 175 174 174 168 166 163 159 154 151 148 146 143 139 136 131 127 132 131 124 115 102 87 79 75 73 66 65 74 89 101 100 101 87 59 30 88 98 104 115 119 119
148 159 176 179 179 173 169 168 162 156 154 152 150 147 142 137 131 127 127 132 132 123 107 91 81 73 66 64 61 66 83 89 88 79 71 56 29 89 103 110 125 128 128
156 160 176 181 181 177 172 169 164 162 159 155 154 150 145 141 136 132 128 132 133 126 113 96 84 74 59 50 50 61 85 86 79 57 43 39 48 96 112 110 112 127 135
157 164 175 176 179 179 174 171 170 166 163 159 156 154 150 148 143 140 138 138 141 141 128 98 84 74 58 40 34 49 93 89 78 57 40 31 63 90 105 106 103 113 124
150 156 158 165 171 173 172 174 175 171 165 163 159 158 155 155 152 148 146 150 157 154 141 94 72 64 62 50 45 60 77 75 66 59 45 35 53 76 89 91 90 103 113
152 151 153 154 162 164 167 177 175 172 169 164 161 162 159 155 151 146 150 160 158 151 132 97 74 68 65 62 82 84 71 56 46 37 27 23 29 50 74 84 86 104 115
175 176 168 166 164 163 172 171 165 165 165 156 154 152 150 150 150 149 166 168 161 151 126 90 57 67 71 63 78 84 74 50 32 15 3 358 349 4 76 93 186 211 163
181 183 180 176 168 163 161 156 156 154 151 152 152 151 151 147 150 150 164 170 149 132 90 40 18 39 87 87 82 74 66 51 28 7 351 349 332 278 221 208 221 221 205
176 189 183 182 175 168 159 158 157 155 153 152 157 161 158 150 149 155 167 166 133 122 123 87 17 82 138 116 105 90 74 64 44 20 2 8 4 326 217 195 203 219 224
184 190 182 177 175 167 158 164 168 163 162 159 163 172 172 162 155 169 181 174 147 145 150 130 124 130 130 124 121 112 95 73 58 43 24 22 24 26 46 183 181 206 216
195 189 180 176 174 169 172 176 174 162 158 160 172 183 184 180 172 173 181 175 156 163 165 149 139 132 129 132 125 123 113 79 56 53 39 26 23 29 49 102 130 133 144
207 193 183 179 172 174 178 184 178 171 163 167 182 193 191 192 184 177 175 181 171 169 167 149 125 115 115 120 126 131 128 104 63 46 43 38 28 27 39 74 104 111 116
203 196 192 184 174 178 181 184 175 173 170 175 186 195 197 198 189 177 181 195 180 167 165 156 143 136 141 142 148 157 143 137 87 39 45 46 39 30 33 51 73 90 107
206 194 194 188 175 179 180 177 168 169 178 183 187 191 198 203 199 190 196 198 181 167 168 174 161 158 164 161 152 107 101 172 265 53 57 48 40 36 36 43 53 64 78
207 192 189 190 176 170 164 154 157 170 186 186 192 196 197 199 196 193 202 195 178 168 171 177 174 162 148 149 120 56 21 14 16 36 50 48 33 37 36 39 41 50 59
205 192 185 182 175 166 159 165 170 183 184 193 202 197 196 197 193 190 183 174 174 176 174 169 164 166 144 135 107 55 2 12 1 333 11 35 344 348 19 28 31 40 54
211 196 185 180 177 179 176 156 145 144 155 163 166 188 192 188 188 189 176 178 176 161 156 166 165 158 149 149 136 117 23 336 324 322 332 244 254 275 260 265 35 46 63
210 194 179 163 151 144 130 115 99 95 95 118 155 180 170 172 174 170 173 170 176 170 177 185 179 169 169 178 164 147 157 211 297 311 285 266 239 242 253 249 222 188 139
197 156 143 134 121 109 120 166 180 173 177 184 169 165 155 160 165 170 171 171 174 178 185 194 189 180 163 172 174 159 141 141 145 295 303 286 258 238 234 232 220 214 210
100 124 128 125 115 113 130 183 209 170 148 140 144 164 166 167 175 178 175 175 181 187 189 182 177 186 185 181 174 165 152 128 153 196 261 295 294 254 231 226 219 215 214
51 95 114 114 102 101 121 180 207 175 163 168 177 178 179 179 185 185 177 181 188 190 188 183 183 191 198 196 195 190 173 163 183 190 201 243 265 274 240 226 221 219 216
Height
1512 1514 1516 1518 1520 1522 1524 1525 1526 1527 1529 1529 1531 1532 1533 1534 1535 1536 1536 1537 1538 1538 1538 1539 1539 1540 1541 1542 1543 1544 1545 1545 1546 1547 1547 1547 1547 1547 1547 1547 1547 1547 1547
1512 1514 1517 1519 1521 1523 1525 1526 1528 1529 1530 1531 1531 1532 1533 1535 1536 1536 1537 1538 1539 1539 1539 1540 1540 1541 1542 1543 1544 1545 1546 1547 1548 1548 1548 1548 1548 1549 1548 1548 1548 1548 1548
1512 1514 1517 1519 1522 1524 1525 1527 1529 1530 1531 1532 1533 1533 1535 1536 1537 1537 1538 1539 1540 1540 1541 1541 1541 1542 1543 1544 1545 1546 1547 1548 1549 1549 1549 1549 1550 1550 1550 1550 1550 1550 1550
1513 1515 1518 1520 1522 1524 1526 1528 1529 1531 1532 1533 1534 1535 1536 1537 1538 1538 1539 1540 1541 1541 1542 1542 1542 1543 1543 1544 1545 1546 1548 1549 1549 1550 1550 1551 1551 1551 1551 1551 1551 1552 1552
1514 1516 1519 1521 1523 1525 1527 1528 1530 1531 1533 1534 1536 1537 1538 1538 1539 1539 1540 1541 1542 1543 1543 1543 1544 1544 1544 1545 1546 1547 1548 1549 1550 1551 1552 1552 1552 1552 1552 1551 1552 1553 1553
1515 1517 1520 1522 1524 1525 1527 1529 1530 1532 1533 1535 1536 1537 1538 1539 1540 1541 1541 1542 1543 1544 1545 1545 1545 1546 1546 1547 1547 1548 1549 1550 1551 1552 1552 1553 1553 1553 1553 1553 1553 1554 1554
1515 1518 1520 1522 1524 1526 1527 1529 1530 1532 1534 1535 1536 1538 1539 1540 1541 1542 1542 1543 1544 1545 1546 1546 1547 1547 1548 1549 1549 1549 1550 1550 1551 1552 1553 1553 1553 1553 1553 1554 1554 1554 1555
1516 1518 1520 1522 1524 1526 1527 1529 1530 1532 1534 1536 1537 1538 1540 1541 1542 1542 1543 1544 1545 1545 1546 1547 1547 1548 1549 1550 1550 1551 1551 1551 1552 1553 1553 1553 1553 1554 1554 1554 1555 1555 1555
1517 1519 1520 1522 1524 1525 1527 1529 1530 1532 1534 1536 1537 1539 1540 1542 1542 1543 1544 1545 1546 1547 1547 1548 1549 1549 1550 1551 1551 1552 1552 1552 1553 1553 1554 1554 1554 1554 1554 1555 1555 1555 1555
1517 1518 1520 1521 1523 1525 1527 1528 1530 1532 1534 1536 1537 1539 1541 1542 1543 1543 1544 1546 1547 1548 1549 1549 1550 1550 1550 1551 1552 1553 1554 1554 1554 1554 1554 1554 1554 1554 1554 1555 1555 1555 1555
1516 1518 1519 1521 1523 1525 1526 1528 1530 1532 1534 1535 1537 1539 1541 1542 1543 1543 1545 1546 1548 1549 1549 1550 1550 1551 1551 1552 1553 1554 1554 1554 1554 1554 1554 1554 1554 1554 1554 1554 1555 1555 1555
1514 1516 1518 1520 1522 1524 1525 1527 1529 1531 1534 1536 1537 1539 1541 1542 1543 1544 1545 1546 1548 1549 1550 1550 1551 1551 1552 1553 1554 1554 1555 1555 1554 1554 1553 1553 1553 1553 1553 1553 1554 1554 1555
1514 1516 1517 1519 1521 1523 1524 1526 1529 1531 1533 1536 1538 1539 1541 1542 1543 1544 1545 1546 1547 1548 1549 1551 1552 1552 1552 1553 1554 1554 1554 1554 1554 1553 1553 1552 1552 1552 1552 1552 1553 1554 1554
1513 1515 1517 1519 1520 1522 1524 1526 1528 1530 1532 1535 1537 1539 1540 1542 1543 1543 1544 1545 1546 1547 1549 1551 1552 1553 1553 1553 1554 1554 1554 1553 1553 1553 1553 1552 1551 1551 1551 1551 1552 1553 1554
1511 1514 1516 1519 1520 1521 1523 1525 1528 1530 1532 1534 1536 1538 1540 1541 1543 1543 1544 1545 1546 1547 1549 1550 1551 1552 1554 1554 1553 1553 1553 1552 1552 1552 1552 1552 1551 1551 1551 1551 1551 1552 1553
1510 1512 1515 1517 1520 1521 1523 1524 1526 1529 1531 1532 1534 1537 1539 1541 1543 1544 1545 1545 1546 1548 1549 1550 1552 1552 1553 1554 1554 1553 1553 1553 1552 1551 1551 1552 1552 1551 1551 1550 1550 1551 1552
1508 1511 1513 1515 1518 1520 1522 1524 1526 1527 1529 1531 1533 1536 1538 1540 1542 1544 1545 1546 1548 1549 1550 1550 1551 1552 1553 1553 1553 1553 1553 1553 1552 1552 1551 1552 1552 1552 1552 1551 1550 1550 1551
1507 1509 1511 1513 1515 1518 1521 1523 1525 1527 1528 1530 1532 1535 1537 1539 1541 1543 1544 1546 1547 1548 1549 1550 1551 1552 1552 1553 1553 1552 1552 1553 1553 1552 1552 1552 1553 1553 1553 1551 1551 1551 1552
1503 1506 1508 1510 1513 1516 1519 1521 1523 1525 1527 1529 1531 1533 1535 1537 1539 1541 1543 1545 1546 1547 1548 1549 1550 1551 1552 1553 1553 1553 1552 1552 1553 1552 1553 1553 1554 1554 1554 1553 1553 1552 1553
1499 1502 1505 1508 1510 1514 1517 1519 1521 1523 1525 1527 1529 1531 1534 1535 1537 1539 1541 1543 1544 1545 1546 1547 1548 1549 1550 1551 1552 1552 1552 1552 1552 1552 1552 1553 1554 1555 1555 1554 1554 1553 1554
1493 1495 1499 1503 1507 1511 1513 1515 1518 1520 1523 1525 1527 1529 1531 1533 1535 1536 1538 1540 1541 1543 1544 1545 1546 1548 1548 1549 1550 1551 1551 1551 1551 1552 1552 1552 1553 1554 1555 1555 1554 1554 1554
1485 1488 1492 1496 1502 1507 1510 1514 1516 1518 1521 1523 1525 1527 1529 1531 1532 1534 1535 1537 1539 1540 1541 1542 1544 1545 1546 1547 1548 1549 1550 1551 1550 1550 1550 1551 1552 1553 1554 1554 1554 1553 1553
1479 1482 1486 1490 1497 1504 1509 1513 1515 1516 1518 1520 1522 1524 1527 1528 1530 1531 1533 1535 1537 1538 1539 1540 1541 1542 1543 1545 1546 1547 1547 1548 1548 1548 1548 1549 1550 1551 1552 1553 1553 1553 1553
1476 1478 1481 1484 1491 1501 1508 1511 1513 1514 1515 1518 1520 1522 1524 1526 1528 1529 1530 1531 1533 1535 1536 1537 1537 1538 1540 1541 1542 1542 1544 1545 1546 1546 1546 1546 1547 1548 1550 1551 1552 1552 1552
1474 1475 1477 1481 1487 1497 1506 1509 1512 1513 1514 1516 1518 1519 1521 1523 1525 1526 1526 1527 1529 1531 1532 1533 1533 1535 1536 1536 1537 1537 1538 1540 1542 1544 1544 1545 1545 1546 1547 1549 1550 1550 1551
1473 1473 1475 1479 1483 1494 1503 1507 1510 1512 1513 1515 1516 1517 1518 1519 1521 1522 1523 1524 1525 1527 1528 1528 1529 1530 1531 1531 1532 1532 1533 1535 1537 1540 1541 1542 1544 1545 1545 1546 1547 1548 1549